Regional Weather Roundup
Issued by NWS

Home | Current Version | Previous Version | Text Only | Print | Product List | Glossary Off
Versions: 1 2 3 4 5 6 7 8 9 10 11 12 13 14 15 16 17 18 19 20 21 22 23 24 25 26 27 28 29 30 31 32 33 34 35 36 37 38 39 40 41 42 43 44 45 46 47 48 49 50

000
ASUS43 KDTX 301501
RWRMI
MICHIGAN HOURLY REGIONAL WEATHER ROUNDUP
NATIONAL WEATHER SERVICE DETROIT/PONTIAC MI
1100 AM EDT TUE JUN 30 2015

NOTE: "FAIR" INDICATES FEW OR NO CLOUDS BELOW 12,000 FEET WITH NO
SIGNIFICANT WEATHER AND/OR OBSTRUCTION TO VISIBILITY.

MIZ047>049-052>055-059>063-066>070-074>076-081>083-301600-
SOUTHEAST LOWER MICHIGAN

CITY           SKY/WX    TMP DP  RH WIND       PRES   REMARKS
ADRIAN         PTSUNNY   68  60  75 SW9       29.82F
ALMA           CLOUDY    67  61  81 CALM      29.81F
ANN ARBOR      PTSUNNY   69  60  73 CALM      29.81F
BAD AXE        CLOUDY    65  58  79 NE6       29.83F
CARO           CLOUDY    66  60  81 CALM      29.81F
DETROIT CITY   CLOUDY    67  59  75 CALM      29.81S
DETROIT        CLOUDY    68  62  81 S6        29.81F
FLINT          PTSUNNY   69  60  73 SW3       29.81F
GROSSE ILE       N/A     66  64  94 CALM      29.80F
HILLSDALE      CLOUDY    66  62  86 S5        29.82F
HOWELL         CLOUDY    65  62  88 SE5       29.81F

CITY           SKY/WX    TMP DP  RH WIND       PRES   REMARKS
JACKSON        PTSUNNY   69  59  70 SW7       29.81F
LAMBERTVILLE   PTSUNNY   71  59  65 SW7       29.81F
LANSING        CLOUDY    68  58  70 VRB3      29.81F
LAPEER         CLOUDY    66  56  70 CALM      29.81F
MASON          CLOUDY    65  59  79 CALM      29.81S
MONROE         CLOUDY    69  60  73 W8        29.80F
MT. CLEMENS    CLOUDY    65  61  89 NE3       29.79F
PONTIAC        CLOUDY    66  60  81 S3        29.80S
PORT HOPE        N/A     63  60  90 CALM      29.82F
PORT HURON     CLOUDY    64  61  88 CALM      29.81F
TRI CITIES     CLOUDY    69  58  67 VRB3      29.81F
MIDLAND        CLOUDY    67  59  76 E5        29.80F
TROY           CLOUDY    68  61  78 CALM      29.82S
SAGINAW HB     CLOUDY    70  59  68 S3        29.80F
$$
MIZ043>046-050>051-056>058-064>065-071>073-077>080-301600-
SOUTHWEST LOWER MICHIGAN

CITY           SKY/WX    TMP DP  RH WIND       PRES   REMARKS
BATTLE CREEK   LGT RAIN  66  60  81 S10       29.81F
BENTON HARBOR  CLOUDY    67  63  87 W9        29.80S FOG
BIG RAPIDS     CLOUDY    65  58  77 SE8       29.80S
COLDWATER      CLOUDY    65  60  85 SE6       29.81F
FREMONT        RAIN      62  61  97 SE5       29.78F
HOLLAND        CLOUDY    65  63  93 S7        29.80S FOG
GRAND RAPIDS   CLOUDY    65  61  87 S12       29.79F
IONIA          CLOUDY    66  59  77 SE8       29.80S
KALAMAZOO      CLOUDY    66  61  84 S7        29.81S
LUDINGTON      CLOUDY    64  60  88 E3        29.79S
MARSHALL       CLOUDY    67  60  80 S5        29.80F
MOUNT PLEASANT LGT RAIN  66  59  79 E3        29.81R
MUSKEGON       DRZL/FOG  64  62  93 SE6       29.78F VSB 3/4
SOUTH HAVEN    CLOUDY    65  63  92 SW8       29.80R FOG
$$
MIZ016>042-301600-
NORTHERN LOWER MICHIGAN

CITY           SKY/WX    TMP DP  RH WIND       PRES   REMARKS
ALPENA         PTSUNNY   72  57  59 CALM      29.81F
BEAVER ISLAND  CLOUDY    62  60  95 CALM      29.81S
BELLAIRE       CLOUDY    68  59  71 S3        29.80S
CADILLAC       CLOUDY    62  60  92 E5        29.81S
CHARLEVOIX     LGT RAIN  67  61  82 NW5       29.83S
FRANKFORT      CLOUDY    67  58  74 N6        29.81R
GAYLORD        CLOUDY    68  54  60 VRB3      29.81F
GRAYLING       CLOUDY    65  59  79 CALM      29.82F
HARBOR SPRINGS CLOUDY    70  60  70 SW3       29.79F
HOUGHTON LAKE  CLOUDY    66  57  72 E3        29.82F
MANISTEE       CLOUDY    63  57  82 SE6       29.81R
OSCODA         CLOUDY    67  58  71 SE5       29.82F
PELLSTON       CLOUDY    72  59  63 CALM      29.80F
ROGERS CITY    PTSUNNY   69  61  75 NE5       29.82S
TRAVERSE CITY  LGT RAIN  64  60  87 CALM      29.79F
$$
MIZ007>008-015-301600-
EASTERN UPPER MICHIGAN

CITY           SKY/WX    TMP DP  RH WIND       PRES   REMARKS
KINROSS        CLOUDY    70  61  73 SE3       29.81F
MACKINAC ISLAN CLOUDY    67  56  68 NE5       29.80F
NEWBERRY       CLOUDY    60  60  97 CALM      29.82R
S. S. MARIE    CLOUDY    69  60  73 S3        29.80F
MUNISING         N/A     46  44  93 NW12      29.86S
$$
MIZ004>006-011>014-085-301600-
CENTRAL UPPER MICHIGAN

CITY           SKY/WX    TMP DP  RH WIND       PRES   REMARKS
MANISTIQUE     CLOUDY    52  50  91 NW9       29.83R
ESCANABA       CLOUDY    52  46  82 N8        29.84S
MENOMINEE      CLOUDY    59  52  77 N12       29.83S
SAWYER-GWINN   CLOUDY    48  46  93 N13       29.87S
$$
MIZ001>003-009>011-084-301600-
WESTERN UPPER MICHIGAN

CITY           SKY/WX    TMP DP  RH WIND       PRES   REMARKS
IRON MOUNTAIN  CLOUDY    59  51  75 N12       29.85F
HOUGHTON       CLOUDY    50  44  80 N13       29.92F
COPPER HARBOR    N/A     45  41  86 N15       29.92F
IRONWOOD       CLOUDY    50  50 100 N9        29.94R
$$

ABBREVIATIONS USED IN REMARKS
   TC - TEMPERATURE IN CELSIUS
  WCI - WIND CHILL INDEX
   HX - HEAT INDEX
  VSB - VISIBILITY




USA.gov is the U.S. government's official web portal to all federal, state and local government web resources and services.